Content
SEND FEEDBACK

Algeria Flag

ADRAR, ALGERIA


Home > Africa > Algeria
Elevation: 263 meters     Latitude: 27 52N     Longitude: 000 16W

WEATHER
 
SELECT A DAY
Number of Records: 160,402;   Date Range: 1/1/98 - 3/22/16
 
SHARE

PRINT THIS DATA

[ ← Previous Day ]
WEATHER ALMANAC - 31 JANUARY, 2013
[ Next Day → ]
[ °F ]   °C
Weather ElementAverageHighLow
Temperature5.3 °C25 °C (4:00 pm) (2:00 pm)
Dewpoint-13.6 °C-6 °C (12:00 pm) (7:00 pm)
Humidity17.1 %31 % (9:00 am)4 % (10:00 pm)
Barometer1029.5 hPa1032.2 hPa (11:00 am)1026.1 hPa (7:00 pm)
Wind Speed17.7 km/h24.1 km/h (5:00 pm)
Weather ElementAverage
Visibility9.7 km
Wind DirectionENE (54.7 °)

Weather ElementTotal
Precipitation---
Heating Degree Days14.7 (Base 18.3)
Averaged from 30 records on 31 January, 2013
WEATHER CONDITIONS BREAKOUT
WIND DIRECTION BREAKOUT
WEATHER BY HOUR - 31 JANUARY, 2013
[ °F ]   °C
Local TimeTemperatureDewpointHumidityBarometerVisibilityWind DirectionWind SpeedGust SpeedPrecipitationEventsConditions
1:00 AM11.1 °C-15.6 °C6 %1030.8 hPa9.7 kmNNE (30°)13 km/h
1:00 AM11 °C-15 °C15 %1031.2 hPaNNE (30°)13 km/hClear
2:00 AM10 °C-14 °C17 %1030.1 hPaNE (50°)13 km/hClear
3:00 AM10 °C-14 °C17 %1030.1 hPaNE (40°)14.8 km/hClear
4:00 AM8.9 °C-13.9 °C9 %1029.8 hPa9.7 kmNE (40°)16.7 km/h
4:00 AM9 °C-14 °C19 %1030.1 hPaNE (40°)16.7 km/hClear
5:00 AM7 °C-14 °C21 %1029.1 hPaNE (40°)18.5 km/hClear
6:00 AM6 °C-14 °C23 %1029.1 hPaNE (40°)14.8 km/hClear
7:00 AM5.6 °C-12.8 °C14 %1030.1 hPa9.7 kmENE (60°)20.4 km/h
7:00 AM6 °C-13 °C25 %1030.1 hPaENE (60°)20.4 km/hClear
8:00 AM5 °C-12 °C29 %1030.1 hPaENE (60°)18.5 km/hClear
9:00 AM5 °C-11 °C31 %1031.2 hPaNorth (10°)18.5 km/hClear
10:00 AM10 °C-6.7 °C18 %1031.2 hPa9.7 kmNNE (20°)13 km/h
10:00 AM10 °C-7 °C30 %1031.2 hPaNNE (20°)13 km/hClear
11:00 AM14 °C-7 °C23 %1032.2 hPaNNE (30°)18.5 km/hClear
12:00 PM18 °C-6 °C19 %1031.2 hPaNE (40°)14.8 km/hClear
1:00 PM21.1 °C-7.8 °C6 %1030.1 hPa9.7 kmNNE (30°)18.5 km/h
1:00 PM21 °C-8 °C14 %1030.1 hPaNNE (30°)18.5 km/hClear
2:00 PM-17.8 °C-17.8 °C1030.1 hPaENE (60°)18.5 km/hClear
3:00 PM-17.8 °C-17.8 °C1028.1 hPaNE (40°)18.5 km/hClear
4:00 PM25 °C1027.1 hPa9.7 kmNNE (30°)22.2 km/h
4:00 PM-17.8 °C-17.8 °C1027.1 hPaNNE (30°)22.2 km/hClear
5:00 PM-17.8 °C-17.8 °C1027.1 hPaNNE (30°)24.1 km/hClear
6:00 PM-17.8 °C-17.8 °C1027.1 hPaNNE (20°)18.5 km/hClear
7:00 PM23.3 °C1026.8 hPa9.7 kmNorth (10°)18.5 km/h
7:00 PM-17.8 °C-17.8 °C1026.1 hPaNorth (10°)18.5 km/hClear
8:00 PM-17.8 °C-17.8 °C1028.1 hPaNorth (360°)20.4 km/hClear
9:00 PM17 °C-17 °C9 %1028.1 hPaNorth (360°)22.2 km/hClear
10:00 PM14.4 °C-16.7 °C4 %1028.8 hPa9.7 kmNorth (10°)16.7 km/h
10:00 PM15 °C-17 °C10 %1028.1 hPaNorth (10°)16.7 km/hClear
Hourly data recorded from DAUA, located 0 kilometers away from Adrar, Algeria




STORIES FROM OUR PARTNERS